Location: Dube?
(50.0633°N, 14.5940°E)
Time: 00:19:33
(UTC+00:00)

Daily predictions for brighter satellites

Satellite Brightness Start Highest point End
(mag) Time Altitude Azimuth Time Altitude Azimuth Time Altitude Azimuth
Cosmos 2333 Rocket 4.1 01:57:29 25° NE 01:57:29 25° NE 01:59:50 10° NE
COSMOS 2455 4.3 02:01:57 33° ENE 02:01:57 33° ENE 02:05:20 10° NE
CENTAUR R/B 4.2 02:05:12 30° N 02:05:13 30° N 02:12:18 10° ENE
ACS3 Solar Sail 3.0 01:59:36 10° NNE 02:03:45 38° NE 02:03:45 38° NE
USA 234 3.9 02:06:54 10° ESE 02:11:31 50° ESE 02:11:31 50° ESE
Cosmos 2360 Rocket 3.6 02:17:23 33° NE 02:17:23 33° NE 02:20:31 10° NNE
Cosmos 2322 Rocket 3.7 02:17:43 32° NE 02:17:43 32° NE 02:20:42 10° NNE
SL-16 R/B 3.9 02:24:11 26° NNE 02:24:11 26° NNE 02:26:37 10° NNE
Cosmos 1943 Rocket 4.0 02:24:44 23° NNE 02:26:18 26° NE 02:30:53 10° E
ARGOS 4.3 02:28:48 10° NNE 02:33:55 40° E 02:34:50 37° ESE
ADEOS Rocket 3.2 02:32:39 10° NNE 02:38:45 79° NE 02:38:45 79° NE
CZ-2C R/B 3.7 02:36:48 10° NNE 02:41:29 39° E 02:42:20 36° ESE
Cosmos 2219 Rocket 2.3 02:55:06 70° ENE 02:55:06 70° ENE 03:00:15 10° NNE
BREEZE-M DEB (TANK) 4.5 02:53:28 59° WSW 02:54:54 68° SSW 03:21:05 10° SE
SL-24 R/B - RUBIN 2 4.4 02:58:33 60° E 02:58:33 60° E 03:03:02 10° NE
USA 59 Rocket 2.2 03:05:02 17° E 03:05:02 17° E 03:06:06 10° ENE
COSMOS 2428 4.1 02:59:23 10° S 03:04:26 36° ESE 03:09:35 10° NE
SL-08 RB Rocket 4.2 03:10:04 10° NNE 03:14:35 58° E 03:15:43 44° SSE
Cosmos 1727 Rocket 4.1 03:10:55 10° S 03:17:04 76° E 03:23:19 10° NNE
CZ-2D R/B 4.3 03:13:45 10° N 03:14:23 13° N 03:14:23 13° N
USA 267 3.1 03:12:09 10° ENE 03:18:44 87° NNW 03:20:18 56° WSW
Cosmos 2333 4.4 03:21:23 56° NNW 03:21:23 56° NNW 03:26:37 10° NNE
Cosmos 2150 Rocket 4.1 03:23:19 62° NNW 03:23:19 62° NNW 03:27:58 10° NNE
Cosmos 2228 Rocket 3.2 03:26:01 71° NE 03:26:01 71° NE 03:30:02 10° NNE
Cosmos 1980 Rocket 4.3 03:27:56 12° NNW 03:27:56 12° NNW 03:29:42 10° N
Cosmos 1269 Rocket 3.9 03:29:01 47° NNW 03:30:35 88° WSW 03:35:53 10° SSE
H-2A R/B 3.6 03:26:16 10° N 03:28:05 21° NNW 03:28:05 21° NNW
NOSS 2-1 (E) 4.3 03:32:54 35° SE 03:33:05 35° SE 03:36:01 10° ENE
Cosmos 2278 Rocket 2.6 03:29:48 21° NNW 03:33:39 62° ENE 03:39:15 10° SE
USA 238 DEB 4.3 03:33:04 35° NW 03:34:03 37° NNW 03:40:32 10° NE
USA 238 4.3 03:33:10 35° NW 03:34:08 37° NNW 03:40:38 10° NE
Cosmos 2173 Rocket 3.8 03:31:11 10° N 03:37:20 88° W 03:43:25 10° S
Cosmos 2333 Rocket 3.2 03:39:30 30° NNW 03:39:30 30° NNW 03:43:57 10° NNE
Cosmos 2237 Rocket 4.1 03:35:54 10° SSE 03:40:46 30° ESE 03:45:37 10° NE
Cosmos 1328 4.4 03:38:29 10° S 03:42:01 51° E 03:45:35 10° NNE
ADEOS II 4.1 03:38:54 10° N 03:39:55 14° NNW 03:39:55 14° NNW
COSMOS 2455 3.4 03:45:06 38° NW 03:45:37 39° NW 03:51:16 10° NNE
Lacrosse 5 rocket 2.4 03:46:58 28° NNE 03:46:58 28° NNE 03:49:12 10° NE
Cosmos 1939 Rocket 2.7 03:42:53 10° NNE 03:46:46 80° E 03:48:48 27° S
Cosmos 2298 Rocket 4.2 03:46:57 48° WNW 03:47:05 48° WNW 03:52:16 10° NNE
ACS3 Solar Sail 2.3 03:42:51 10° N 03:47:53 36° WNW 03:47:53 36° WNW
Meteor 1-24 Rocket 4.1 03:44:41 10° S 03:50:24 67° E 03:55:57 10° NNE
Cosmos 2369 Rocket 4.4 03:46:31 10° N 03:50:41 20° NE 03:54:50 10° E
Cosmos 1000 Rocket 4.4 03:46:01 10° SSW 03:52:20 81° W 03:58:42 10° N
BlueWalker 3 2.6 03:53:51 39° S 03:53:51 39° S 03:56:41 10° SE
USA 234 3.7 03:50:45 10° SSE 03:56:51 41° SW 03:58:53 33° W
CENTAUR R/B 4.1 03:52:19 16° NW 03:57:59 40° NNE 04:06:18 10° E
Cosmos 2123 Rocket 4.0 03:52:23 10° S 03:58:37 82° E 04:04:50 10° N
USA 276 4.2 04:00:15 15° SSE 04:00:15 15° SSE 04:01:04 10° SSE
Cosmos 2360 Rocket 3.1 03:59:09 29° NW 03:59:19 29° NW 04:04:16 10° NNE
Cosmos 2322 Rocket 3.2 03:59:31 27° NW 03:59:36 27° NW 04:04:26 10° NNE
Helios 1A Rocket 2.7 03:56:59 10° SSE 04:00:22 67° ENE 04:02:41 19° N
Cosmos 1782 Rocket 4.2 03:56:01 10° N 04:00:23 56° ENE 04:04:41 10° SSE
Meteor 2-5 Rocket 4.0 03:55:21 10° S 04:01:15 74° E 04:07:06 10° NNE
Gbstr 26 Del rocket 3.8 03:59:16 29° SW 04:01:46 64° SSE 04:07:42 10° ENE
SJ-11-01 4.3 04:00:09 10° NNE 04:04:51 84° ESE 04:09:33 10° SSW
SL-16 R/B 3.7 04:06:02 19° NW 04:06:09 19° NW 04:10:03 10° N
Cosmos 44 Rocket 3.6 04:05:02 38° WNW 04:06:29 49° WSW 04:11:25 10° SSE
Cosmos 2016 Rocket 4.0 04:02:10 10° N 04:08:36 86° W 04:14:58 10° S
Cosmos 1943 Rocket 2.0 04:06:17 17° NNW 04:10:36 73° WSW 04:16:04 10° SSE
H-2A R/B 3.8 04:08:07 10° N 04:11:15 38° NW 04:11:15 38° NW
Okean 1-7 3.6 04:13:10 33° NW 04:13:10 33° NW 04:16:28 10° N
ARGOS 3.7 04:09:09 10° N 04:14:05 36° WNW 04:16:17 26° WSW
PAYLOAD A 4.4 04:09:51 10° N 04:15:00 46° WNW 04:20:03 10° SW
NOSS 2-1 (C) 2.6 04:14:57 47° WSW 04:15:45 74° NW 04:18:46 10° NE
Cosmos 1908 Rocket 3.6 04:11:52 10° NNW 04:16:13 55° W 04:20:31 10° S
Meteor 2-21 Rocket 4.3 04:10:17 10° SSW 04:16:25 80° W 04:22:32 10° N
Cosmos 1140 Rocket 3.8 04:15:56 25° NW 04:18:25 42° WSW 04:23:11 10° S
CZ-2C R/B 3.0 04:15:00 10° N 04:19:28 34° WNW 04:21:32 25° WSW
NOSS 2-1 (D) 2.7 04:19:05 46° WSW 04:19:48 62° NW 04:22:47 10° NE
Timation 2 Rocket 4.2 04:14:48 14° NW 04:20:30 54° WSW 04:26:41 10° S
Cosmos 1300 Rocket 3.4 04:16:40 10° NNW 04:21:03 83° W 04:25:21 10° S
ADEOS Rocket 4.2 04:19:07 10° N 04:24:04 24° NW 04:25:40 22° WNW
Cosmos 2061 Rocket 4.0 04:22:24 10° N 04:28:39 89° E 04:34:51 10° S
NOSS 3-1 (C) 3.1 04:27:24 19° WSW 04:30:51 61° NW 04:36:47 10° NE
Iridium 4 Rocket 3.0 04:27:05 10° N 04:31:23 58° W 04:35:28 10° SSW
Cosmos 2100 Rocket 4.4 04:26:12 10° NNW 04:31:44 36° W 04:37:14 10° SSW
SJ 16-02 2.3 04:28:32 10° NNW 04:32:42 46° ENE 04:36:49 10° SE
Orbus 7S? 4.2 04:30:49 10° SW 04:36:29 53° SE 04:39:32 10° ENE
Cosmos 1190 Rocket 4.1 04:33:12 10° NNW 04:38:32 79° ENE 04:43:46 10° SSE
Cosmos 2219 Rocket 3.2 04:36:50 20° WNW 04:39:06 26° NW 04:43:50 10° NNE
IRS-1D 3.4 04:34:45 10° N 04:39:41 61° WNW 04:44:32 10° SSW
NOSS 0 Rocket 3.9 04:38:52 10° SW 04:45:00 73° WNW 04:51:12 10° NNE
Cosmos 1869 3.2 04:43:59 10° N 04:47:29 73° E 04:50:58 10° SSE
COSMOS 2428 3.0 04:43:06 10° SW 04:48:33 46° NW 04:54:03 10° NNE
Cosmos 371 Rocket 3.7 04:46:36 10° NNW 04:51:26 64° ENE 04:56:14 10° SE
USA 59 Rocket 0.1 04:50:48 20° W 04:52:11 29° NW 04:54:50 10° NNE
Cosmos 2322 4.2 04:50:53 10° WSW 04:56:09 37° NW 05:01:25 10° NNE
Cosmos 1954 Rocket 4.0 04:51:24 10° NNW 04:56:40 89° ENE 05:01:50 10° SSE
COSMO-SKYMED 1 2.9 04:54:50 10° SSW 04:58:42 39° W 05:02:35 10° NNW
SKYMED 2 4.4 04:56:17 10° SSW 05:00:05 30° W 05:03:56 10° NNW
Cosmos 407 Rocket 4.1 04:55:41 10° NW 05:00:18 35° WSW 05:04:53 10° SSW
USA 267 3.6 04:55:11 10° ENE 05:01:29 52° N 05:07:39 11° W
Cosmos 1484 Rocket 2.4 04:58:49 10° NNE 05:02:23 80° WNW 05:05:55 10° SSW
DMSP B5D1-3 4.5 04:58:47 10° S 05:03:52 74° WSW 05:09:00 10° NNW
Aureole 3 4.4 04:57:56 10° S 05:04:21 88° W 05:09:54 10° N
Cosmos 1980 3.7 05:02:35 10° SW 05:08:11 64° WNW 05:13:51 10° NNE
Cosmos 1656 Rocket 3.7 05:08:04 10° NNW 05:13:47 88° WSW 05:19:28 10° SSE
Cosmos 2233 Rocket 4.4 05:08:50 10° NNW 05:14:40 41° W 05:20:28 10° SSW
NOSS 3-1 (A) 3.1 05:10:10 10° SW 05:14:59 66° NW 05:20:57 10° NE
Cosmos 1400 Rocket 3.4 05:11:16 10° N 05:14:59 55° ENE 05:18:37 10° SSE
Cosmos 1447 Rocket 4.5 05:09:12 10° SSW 05:15:24 71° W 05:21:43 10° N
Cosmos 2297 4.4 05:10:43 10° NNW 05:16:19 56° NE 05:21:51 10° SE
Cosmos 1464 Rocket 4.3 05:10:21 10° N 05:16:34 72° E 05:22:41 10° SSE
Cosmos 2278 Rocket 3.2 05:12:44 10° NW 05:17:17 26° WSW 05:21:50 10° SSW
Lacrosse 4 Rocket 3.8 05:15:56 10° N 05:17:46 13° NNE 05:19:35 10° NE
Cosmos 2251 Rocket 3.9 05:14:10 10° NW 05:19:13 44° WSW 05:24:17 10° S
Cosmos 304 Rocket 3.7 05:14:57 10° NNW 05:19:44 73° WSW 05:24:28 10° SSE
NOSS 2-1 (E) 4.0 05:19:19 10° W 05:22:05 24° NW 05:24:38 10° NNE
Lacrosse 5 rocket 2.3 05:20:57 10° NW 05:23:51 25° N 05:26:41 10° ENE
Cosmos 2237 Rocket 2.3 05:18:59 10° SW 05:24:32 54° NW 05:30:06 10° NNE
Cosmos 2333 Rocket 4.2 05:23:11 10° NW 05:25:10 12° NNW 05:27:09 10° N
IGS 5A 3.3 05:21:21 10° N 05:25:22 72° WNW 05:29:21 10° SSW
Sich 1 Rocket 4.4 05:24:08 10° N 05:28:39 58° ENE 05:33:07 10° SSE
